Weather History for KFSO - December, 2013

Change the Weather History Date:

Monday, December 30, 2013

  Actual Average (KPBG) Record (KPBG)
Temperature  
Mean Temperature 10 °F 20 °F  
Max Temperature 23 °F 29 °F 44 °F (1948)
Min Temperature -4 °F 10 °F -16 °F (1989)
Degree Days  
Heating Degree Days 56 45  
Month to date heating degree days 1206  
Since 1 July heating degree days 2840  
Cooling Degree Days 0 0  
Month to date cooling degree days 0  
Year to date cooling degree days 346  
Moisture  
Dew Point 3 °F    
Average Humidity 73    
Maximum Humidity 90    
Minimum Humidity 54    
Precipitation  
Precipitation 0.00 in - 0.71 in (1954)
Month to date precipitation  
Year to date precipitation  
Sea Level Pressure  
Sea Level Pressure 30.00 in    
Wind  
Wind Speed 3 mph (WNW)    
Max Wind Speed 10 mph    
Max Gust Speed 20 mph    
Visibility 8 miles    
Events Snow    
T = Trace of Precipitation, MM = Missing Value Source: NWS Daily Summary

Daily Weather History Graph

Daily Weather History Graph

Search for Another Location

Airport or City:

Trip Planner

Search our weather history database for the weather conditions in past years. The results will help you decide how hot, cold, wet, or windy it might be!

Date:

Astronomy

Dec. 30, 2013 Rise Set
Actual Time 7:30 AM EST 4:20 PM EST
Civil Twilight 6:56 AM EST 4:53 PM EST
Nautical Twilight 6:19 AM EST 5:30 PM EST
Astronomical Twilight 5:43 AM EST 6:06 PM EST
Moon 5:14 AM EST (12/30) 2:52 PM EST (12/30)
Length of Visible Light 9h 57m
Length of Day
8h 49m
Waning Crescent, 5% of the Moon is Illuminated
Dec 30
Waning Crescent
Jan 1
New
Jan 7
First Quarter
Jan 15
Full
Jan 24
Last Quarter

Hourly Weather History & Observations

Time (EST) Temp. Windchill Dew Point Humidity Pressure Visibility Wind Dir Wind Speed Gust Speed Precip Events Conditions
12:15 AM 19.2 °F - 15.8 °F 87% 29.59 in 10.0 mi Calm Calm - N/A   Overcast
12:35 AM 19.2 °F 14.1 °F 15.8 °F 87% 29.59 in 10.0 mi NW 3.5 mph - N/A   Overcast
12:55 AM 19.2 °F - 15.8 °F 87% 29.58 in 7.0 mi Calm Calm - N/A   Overcast
1:15 AM 19.2 °F - 16.2 °F 88% 29.58 in 7.0 mi Calm Calm - N/A   Overcast
1:35 AM 19.6 °F - 16.5 °F 88% 29.57 in 5.0 mi Calm Calm - N/A   Overcast
1:55 AM 20.8 °F 14.4 °F 18.1 °F 89% 29.57 in 5.0 mi SSE 4.6 mph - N/A   Overcast
2:15 AM 20.8 °F 14.4 °F 18.1 °F 89% 29.59 in 5.0 mi NW 4.6 mph - N/A   Overcast
2:35 AM 20.8 °F - 18.3 °F 90% 29.59 in 4.0 mi Calm Calm - N/A   Overcast
2:55 AM 20.8 °F 16.0 °F 18.3 °F 90% 29.62 in 4.0 mi NW 3.5 mph - N/A Snow Light Snow
3:15 AM 20.8 °F 16.0 °F 18.1 °F 89% 29.65 in 5.0 mi NW 3.5 mph - N/A   Overcast
3:35 AM 19.9 °F 13.4 °F 17.2 °F 89% 29.66 in 7.0 mi NNW 4.6 mph - N/A   Overcast
3:55 AM 19.0 °F - 15.8 °F 87% 29.68 in 10.0 mi Calm Calm - N/A   Overcast
4:15 AM 20.7 °F 14.2 °F 17.4 °F 87% 29.68 in 10.0 mi WNW 4.6 mph - N/A   Overcast
4:35 AM 20.8 °F 16.0 °F 17.6 °F 87% 29.69 in 10.0 mi North 3.5 mph - N/A   Overcast
4:55 AM 21.6 °F - 18.1 °F 87% 29.71 in 10.0 mi Calm Calm - N/A   Overcast
5:15 AM 23.2 °F 16.0 °F 19.8 °F 87% 29.71 in 10.0 mi WNW 5.8 mph - N/A   Overcast
5:35 AM 23.4 °F 16.2 °F 19.4 °F 85% 29.74 in 10.0 mi NW 5.8 mph - N/A   Overcast
5:55 AM 23.4 °F 17.4 °F 19.4 °F 85% 29.76 in 10.0 mi WNW 4.6 mph - N/A   Overcast
6:15 AM 23.7 °F 13.3 °F 19.4 °F 84% 29.79 in 10.0 mi WNW 10.4 mph 19.6 mph N/A   Overcast
6:35 AM 23.2 °F 13.3 °F 18.7 °F 83% 29.82 in 10.0 mi WNW 9.2 mph 18.4 mph N/A   Overcast
6:55 AM 20.1 °F 9.5 °F 15.3 °F 81% 29.85 in 5.0 mi WNW 9.2 mph 18.4 mph N/A Snow Light Snow
7:15 AM 18.3 °F 7.3 °F 12.2 °F 77% 29.88 in - WNW 9.2 mph 18.4 mph N/A   Overcast
7:35 AM 15.8 °F 5.1 °F 8.8 °F 74% 29.91 in - West 8.1 mph 18.4 mph N/A   Overcast
7:55 AM 15.8 °F 6.1 °F 9.1 °F 75% 29.93 in - WNW 6.9 mph - N/A   Overcast
8:15 AM 13.1 °F 2.8 °F 5.9 °F 73% 29.95 in - West 6.9 mph 18.4 mph N/A   Mostly Cloudy
8:35 AM 11.3 °F -0.4 °F 3.7 °F 72% 29.98 in - West 8.1 mph - N/A   Scattered Clouds
8:55 AM 10.8 °F 4.5 °F 3.2 °F 72% 30.00 in - West 3.5 mph - N/A   Mostly Cloudy
9:15 AM 11.1 °F -2.4 °F 3.0 °F 70% 30.02 in - West 10.4 mph 18.4 mph N/A   Scattered Clouds
9:35 AM 11.3 °F -2.2 °F 2.3 °F 67% 30.03 in - West 10.4 mph 17.3 mph N/A   Clear
9:55 AM 10.8 °F -2.8 °F 1.4 °F 66% 30.04 in - WNW 10.4 mph 19.6 mph N/A   Clear
10:15 AM 11.3 °F -0.4 °F 1.4 °F 64% 30.05 in - West 8.1 mph 18.4 mph N/A   Clear
10:35 AM 10.9 °F -2.6 °F -0.2 °F 61% 30.06 in - WNW 10.4 mph 19.6 mph N/A   Clear
10:55 AM 12.0 °F 2.7 °F -0.2 °F 58% 30.07 in - West 5.8 mph - N/A   Clear
11:15 AM 11.8 °F -1.5 °F -1.3 °F 56% 30.07 in - West 10.4 mph 16.1 mph N/A   Clear
11:35 AM 12.2 °F 1.7 °F -0.8 °F 56% 30.08 in - WNW 6.9 mph 17.3 mph N/A   Clear
11:55 AM 13.1 °F 1.8 °F 0.3 °F 57% 30.08 in - WNW 8.1 mph - N/A   Clear
12:15 PM 12.7 °F 0.4 °F -0.6 °F 55% 30.08 in - WNW 9.2 mph 17.3 mph N/A   Clear
12:35 PM 12.2 °F -0.2 °F -1.3 °F 55% 30.08 in - WNW 9.2 mph 16.1 mph N/A   Clear
12:55 PM 13.1 °F 2.8 °F 0.3 °F 57% 30.09 in - West 6.9 mph - N/A   Clear
1:15 PM 13.1 °F 2.8 °F -0.4 °F 55% 30.10 in - West 6.9 mph - N/A   Clear
1:35 PM 13.1 °F 5.4 °F -0.6 °F 54% 30.10 in - West 4.6 mph - N/A   Clear
1:55 PM 13.1 °F 5.4 °F -0.4 °F 55% 30.11 in - NW 4.6 mph - N/A   Clear
2:15 PM 12.4 °F 4.6 °F -1.1 °F 55% 30.13 in - NNW 4.6 mph - N/A   Clear
2:35 PM 11.8 °F 3.9 °F -1.3 °F 56% 30.14 in - NNW 4.6 mph - N/A   Clear
2:55 PM 10.9 °F 4.7 °F -2.6 °F 55% 30.15 in - NW 3.5 mph - N/A   Clear
3:15 PM 10.8 °F 4.5 °F -2.4 °F 56% 30.16 in - NNW 3.5 mph - N/A   Clear
3:55 PM 8.2 °F -0.3 °F -4.0 °F 58% 30.18 in - NNW 4.6 mph - N/A   Clear
4:15 PM 8.2 °F -0.3 °F -3.5 °F 59% 30.19 in - North 4.6 mph - N/A   Clear
4:35 PM 6.4 °F -0.5 °F -4.5 °F 61% 30.20 in - North 3.5 mph - N/A   Clear
4:55 PM 4.8 °F - -5.4 °F 63% 30.20 in - Calm Calm - N/A   Clear
5:15 PM 2.3 °F - -6.3 °F 67% 30.20 in - Calm Calm - N/A   Clear
5:35 PM 1.9 °F - -5.6 °F 71% 30.21 in - Calm Calm - N/A   Clear
5:55 PM 1.9 °F - -4.9 °F 73% 30.22 in - Calm Calm - N/A   Clear
6:15 PM 3.2 °F - -3.8 °F 73% 30.22 in - Calm Calm - N/A   Clear
6:35 PM 3.2 °F - -4.5 °F 70% 30.24 in - Calm Calm - N/A   Clear
6:55 PM 3.2 °F - -4.9 °F 69% 30.24 in - Calm Calm - N/A   Clear
7:15 PM 1.2 °F - -6.7 °F 69% 30.24 in - Calm Calm - N/A   Clear
7:35 PM 1.0 °F - -6.2 °F 72% 30.24 in - Calm Calm - N/A   Clear
7:55 PM 0.5 °F - -6.7 °F 72% 30.23 in - Calm Calm - N/A   Clear
8:15 PM 0.5 °F - -7.1 °F 70% 30.24 in - Calm Calm - N/A   Clear
8:35 PM -2.9 °F - -9.6 °F 73% 30.23 in - Calm Calm - N/A   Clear
8:55 PM -1.8 °F - -7.6 °F 76% 30.24 in - Calm Calm - N/A   Clear
9:15 PM -4.0 °F - -9.9 °F 76% 30.25 in - Calm Calm - N/A   Clear
9:35 PM -4.2 °F - -9.9 °F 76% 30.26 in 10.0 mi Calm Calm - N/A   Clear
9:55 PM -0.2 °F - -6.2 °F 76% 30.25 in 10.0 mi Calm Calm - N/A   Clear
10:15 PM -1.8 °F - -7.8 °F 76% 30.25 in 10.0 mi Calm Calm - N/A   Clear
10:35 PM -1.8 °F - -7.6 °F 76% 30.25 in 10.0 mi Calm Calm - N/A   Clear
10:55 PM -4.2 °F - -10.3 °F 75% 30.24 in 10.0 mi Calm Calm - N/A   Clear
11:15 PM -1.8 °F - -7.6 °F 76% 30.24 in 10.0 mi Calm Calm - N/A   Clear
11:35 PM -1.8 °F - -8.0 °F 75% 30.23 in 10.0 mi Calm Calm - N/A   Clear
11:55 PM -1.3 °F -9.3 °F -7.2 °F 76% 30.23 in 10.0 mi SE 3.5 mph - N/A   Clear